Overview Statistics Trail Chart Weather Telemetry Raw packets
 

This is the latest recevied weather packets stored in our database for station/object KE0TNI-13. If no packets are shown the sender has not sent any weather packets the latest 10 day(s).

<< 58 59 60 61 62 63 64 >>
Time Temp. Humidity Pressure Rain* Wind** Luminosity Snow
1777275192 -1.11° C 76% 1009.6 hPa 0 mm - 0 W/m² -
1777274884 -1.11° C 74% 1009.5 hPa 0 mm - 0 W/m² -
1777274582 -0.56° C 74% 1009.6 hPa 0 mm - 0 W/m² -
1777274276 0° C 72% 1009.3 hPa 0 mm - 0 W/m² -
1777273972 -0.56° C 69% 1009.5 hPa 0 mm - 0 W/m² -
1777273670 -1.11° C 71% 1009.7 hPa 0 mm - 0 W/m² -
1777273368 -0.56° C 74% 1009.5 hPa 0 mm - 0 W/m² -
1777273065 -0.56° C 69% 1009.7 hPa 0 mm - 0 W/m² -
1777272763 -0.56° C 75% 1009.5 hPa 0 mm - 0 W/m² -
1777272460 -0.56° C 73% 1009.7 hPa 0 mm - 0 W/m² -
1777272158 -0.56° C 80% 1009.5 hPa 0 mm - 0 W/m² -
1777271853 -0.56° C 80% 1009.6 hPa 0 mm - 0 W/m² -
1777271549 -0.56° C 78% 1009.6 hPa 0 mm - 0 W/m² -
1777271246 0° C 80% 1009.5 hPa 0 mm - 0 W/m² -
1777270941 0° C 80% 1009.3 hPa 0 mm - 0 W/m² -
1777270638 0° C 79% 1009.1 hPa 0 mm - 0 W/m² -
1777270335 0.56° C 77% 1009.3 hPa 0 mm - 0 W/m² -
1777270032 0.56° C 77% 1009.5 hPa 0 mm - 0 W/m² -
1777269728 0.56° C 77% 1009.5 hPa 0 mm - 0 W/m² -
1777269426 0.56° C 76% 1009.6 hPa 0 mm - 0 W/m² -
1777269124 0.56° C 76% 1009.6 hPa 0 mm - 0 W/m² -
1777268820 1.67° C 74% 1009.5 hPa 0 mm - 0 W/m² -
1777268517 2.22° C 65% 1009.2 hPa 0 mm - 0 W/m² -
1777268214 2.22° C 60% 1009.3 hPa 0 mm - 0 W/m² -
1777267911 2.22° C 61% 1008.8 hPa 0 mm - 0 W/m² -

* Rain latest hour (hover to see other rain measurements)
** Current wind speed in m/s (hover to see current wind gust speed)